Provincetown, Massachusetts, United States (02657)
Lat: 42.06N, Lon: 70.18W
Wx Zone: MAZ022
Local Info
Past Weather Observations for Today

NOTE: This archive is for the closest National Weather Service station to Provincetown. Information may differ from the station used for current weather conditions.

Click here for Long-term Archive

Time Weather Temperature Dewpoint Humidity Pressure Winds Precip Visibility
14:35
Overcast
45°F / 7°C 41°F / 5°C 87% 29.68 in
(1005 mb)
NW 18.4 mph
(NW 30 kph)
- 10SM
14:15
Overcast
45°F / 7°C 41°F / 5°C 87% 29.68 in
(1005 mb)
NW 16.1 mph
(NW 26 kph)
- 10SM
13:55
Overcast
45°F / 7°C 39°F / 4°C 81% 29.68 in
(1005 mb)
NW 18.4 mph
(NW 30 kph)
- 10SM
13:35
Overcast
45°F / 7°C 39°F / 4°C 81% 29.68 in
(1005 mb)
WNW 16.1 mph
(WNW 26 kph)
- 10SM
13:15
Overcast
45°F / 7°C 41°F / 5°C 87% 29.68 in
(1005 mb)
WNW 17.3 mph
(WNW 28 kph)
- 5SM
12:55
Overcast
46°F / 8°C 41°F / 5°C 82% 29.68 in
(1005 mb)
WNW 19.6 mph
(WNW 32 kph)
- 1 1/2SM
12:35
Overcast
46°F / 8°C 41°F / 5°C 82% 29.68 in
(1005 mb)
NW 17.3 mph
(NW 28 kph)
- 1 3/4SM
12:15
Overcast
48°F / 9°C 43°F / 6°C 82% 29.68 in
(1005 mb)
NW 17.3 mph
(NW 28 kph)
- 4SM
11:55
Overcast
48°F / 9°C 43°F / 6°C 82% 29.68 in
(1005 mb)
NW 17.3 mph
(NW 28 kph)
- 7SM
11:35
Overcast
48°F / 9°C 43°F / 6°C 82% 29.68 in
(1005 mb)
WNW 16.1 mph
(WNW 26 kph)
- 5SM
11:15
Overcast
48°F / 9°C 43°F / 6°C 82% 29.68 in
(1005 mb)
Calm - 6SM
10:55
Overcast
48°F / 9°C 43°F / 6°C 82% 29.71 in
(1006 mb)
NW 13.8 mph
(NW 22 kph)
- 4SM
10:35
Overcast
48°F / 9°C 45°F / 7°C 87% 29.71 in
(1006 mb)
NW 11.5 mph
(NW 19 kph)
- 8SM
10:15
Overcast
48°F / 9°C 45°F / 7°C 87% 29.71 in
(1006 mb)
NW 9.2 mph
(NW 15 kph)
- 2 1/2SM
09:55
Overcast
50°F / 10°C 45°F / 7°C 82% 29.71 in
(1006 mb)
NW 9.2 mph
(NW 15 kph)
- 1/2SM
09:35
Overcast
54°F / 12°C 48°F / 9°C 82% 29.71 in
(1006 mb)
SSW 8.1 mph
(SSW 13 kph)
- 1/2SM
09:15
Overcast
54°F / 12°C 48°F / 9°C 82% 29.71 in
(1006 mb)
SW 6.9 mph
(SW 11 kph)
- 8SM
08:55
Overcast
54°F / 12°C 48°F / 9°C 82% 29.71 in
(1006 mb)
S 6.9 mph
(S 11 kph)
- 7SM
08:35
Overcast
54°F / 12°C 48°F / 9°C 82% 29.71 in
(1006 mb)
S 8.1 mph
(S 13 kph)
- 8SM
08:15
Overcast
54°F / 12°C 48°F / 9°C 82% 29.71 in
(1006 mb)
S 8.1 mph
(S 13 kph)
- 3SM
07:55
Overcast
52°F / 11°C 48°F / 9°C 88% 29.71 in
(1006 mb)
SSE 6.9 mph
(SSE 11 kph)
- 3SM
07:35
Overcast
54°F / 12°C 48°F / 9°C 82% 29.71 in
(1006 mb)
SSE 6.9 mph
(SSE 11 kph)
- 7SM
07:15
Overcast
52°F / 11°C 48°F / 9°C 88% 29.74 in
(1007 mb)
SE 6.9 mph
(SE 11 kph)
- 7SM
06:55
Overcast
52°F / 11°C 48°F / 9°C 88% 29.74 in
(1007 mb)
SSE 5.8 mph
(SSE 9 kph)
- 10SM
06:35
Overcast
52°F / 11°C 48°F / 9°C 88% 29.74 in
(1007 mb)
SE 5.8 mph
(SE 9 kph)
- 10SM
06:15
Overcast
52°F / 11°C 48°F / 9°C 88% 29.74 in
(1007 mb)
SSE 6.9 mph
(SSE 11 kph)
- 8SM
05:55
Overcast
50°F / 10°C 48°F / 9°C 94% 29.74 in
(1007 mb)
SSE 6.9 mph
(SSE 11 kph)
- 9SM
05:35
Mostly Cloudy
50°F / 10°C 48°F / 9°C 94% 29.74 in
(1007 mb)
SSE 8.1 mph
(SSE 13 kph)
- 10SM
05:15
Mostly Cloudy
50°F / 10°C 48°F / 9°C 94% 29.77 in
(1008 mb)
SSE 8.1 mph
(SSE 13 kph)
- 10SM
04:55
Mostly Cloudy
52°F / 11°C 48°F / 9°C 88% 29.77 in
(1008 mb)
SSE 9.2 mph
(SSE 15 kph)
- 10SM
04:35
Overcast
52°F / 11°C 48°F / 9°C 88% 29.77 in
(1008 mb)
SSE 8.1 mph
(SSE 13 kph)
- 10SM
04:15
Overcast
52°F / 11°C 48°F / 9°C 88% 29.8 in
(1009 mb)
SE 8.1 mph
(SE 13 kph)
- 7SM
03:55
Overcast
50°F / 10°C 48°F / 9°C 94% 29.8 in
(1009 mb)
ESE 9.2 mph
(ESE 15 kph)
- 8SM
03:35
Overcast
50°F / 10°C 46°F / 8°C 88% 29.8 in
(1009 mb)
ESE 9.2 mph
(ESE 15 kph)
- 10SM
03:15
Overcast
48°F / 9°C 46°F / 8°C 94% 29.8 in
(1009 mb)
E 9.2 mph
(E 15 kph)
- 10SM
02:55
Overcast
48°F / 9°C 46°F / 8°C 94% 29.83 in
(1010 mb)
E 9.2 mph
(E 15 kph)
- 10SM
02:35
Overcast
48°F / 9°C 46°F / 8°C 94% 29.83 in
(1010 mb)
E 10.4 mph
(E 17 kph)
- 10SM
02:15
Overcast
48°F / 9°C 46°F / 8°C 94% 29.86 in
(1011 mb)
E 10.4 mph
(E 17 kph)
- 9SM
01:55
Mostly Cloudy
48°F / 9°C 46°F / 8°C 94% 29.89 in
(1012 mb)
E 8.1 mph
(E 13 kph)
- 10SM
01:35
Overcast
48°F / 9°C 46°F / 8°C 94% 29.89 in
(1012 mb)
E 6.9 mph
(E 11 kph)
- 10SM
01:15
Mostly Cloudy
48°F / 9°C 45°F / 7°C 87% 29.89 in
(1012 mb)
ESE 6.9 mph
(ESE 11 kph)
- 10SM
00:55
Partly Cloudy
46°F / 8°C 45°F / 7°C 93% 29.89 in
(1012 mb)
E 8.1 mph
(E 13 kph)
- 10SM
00:35
Mostly Cloudy
48°F / 9°C 45°F / 7°C 87% 29.92 in
(1013 mb)
E 8.1 mph
(E 13 kph)
- 10SM
00:15
Partly Cloudy
46°F / 8°C 45°F / 7°C 93% 29.92 in
(1013 mb)
E 6.9 mph
(E 11 kph)
- 10SM
Time Weather Temperature Dewpoint Humidity Pressure Winds Precip Visibility


Weather for websites

WeatherForYou.com, LLC is not responsible for any damages or problems caused by this service. Current weather conditions are obtained from the closest station including government and personal stations which may have varying degrees of accuracy. Weather forecasts are derived from the NOAA NDFD. Like all things, this site belongs to Jesus Christ... He just trusts me to maintain it. If you have any questions or comments email webmaster@weatherforyou.com

Copyright © 2014, WeatherForYou.com LLC. All rights reserved.